[[{"header":{"parameterUnit":"m.s-1","parameterCategory":1,"la1":30.2991,"la2":30.254,"lo1":-89.0895,"lo2":-89.0444,"dy":0.0017,"dx":0.0017,"nx":28,"ny":28,"refTime":"2025-04-23T21:00:00:Z","depth":0,"parameterNumber":2,"parameterNumberName":"U-component_of_WINDS"},"data":[0,0,0,0,0,0,0,0,0,0,0,0,0,0,0,0,0,0,0,0,0,0,0,0,0,0,0,0,0,0,0,0,0,0,0,0,0,0,0,0,0,0,0,0,0,0,0,0,0,0,0,0,0,0,0,0,0,0,-1.0211,-1.0212,0,-1.0238,-1.0238,-1.0238,-1.0235,-1.0234,-1.0234,-1.0234,-1.0263,-1.0264,-1.0265,0,0,0,0,0,0,0,0,0,0,0,0,0,-1.016,-1.0161,-1.0211,-1.0212,-1.0212,-1.0238,-1.0238,-1.0238,-1.0235,-1.0234,-1.0234,-1.0233,-1.0262,-1.0264,-1.0265,0,0,0,0,0,0,0,0,0,0,0,0,0,-1.0184,-1.0162,-1.0211,-1.0213,-1.0214,-1.0238,-1.0238,-1.0238,-1.0235,-1.0234,-1.0234,-1.0233,-1.0262,-1.0264,-1.0265,-1.0289,0,0,-1.0271,-1.0271,0,0,0,0,0,0,0,0,-1.0183,-1.0186,-1.0213,-1.0213,-1.0214,-1.0232,-1.0231,-1.0256,-1.0235,-1.0227,-1.0234,-1.0233,-1.0253,-1.0256,-1.0262,-1.0291,-1.0292,-1.0271,-1.0272,-1.0273,-1.0273,0,0,0,0,0,0,0,-1.0181,-1.0185,-1.0222,-1.0213,-1.0214,-1.0214,-1.0216,-1.0235,-1.0244,-1.0228,-1.0228,-1.0231,-1.0253,-1.026,-1.0263,-1.0292,-1.0271,-1.0272,-1.0273,-1.0274,-1.0343,-1.0343,0,0,0,0,0,0,-1.0179,-1.0184,-1.0221,-1.0223,-1.0196,-1.0215,-1.0218,-1.0227,-1.0243,-1.0245,-1.0231,-1.023,-1.0258,-1.0261,-1.0264,-1.0293,-1.0273,-1.0274,-1.0275,-1.0342,-1.0343,-1.0344,0,0,0,0,0,0,-1.0178,-1.0182,-1.022,-1.0203,-1.0208,-1.0217,-1.0227,-1.0228,-1.0235,-1.0246,-1.0248,-1.0237,-1.0257,-1.0261,-1.0283,-1.0294,-1.0275,-1.0277,-1.0341,-1.0342,-1.0343,-1.0352,0,0,0,0,0,0,-1.0176,-1.0182,-1.019,-1.0203,-1.0209,-1.0238,-1.0227,-1.0229,-1.0238,-1.0237,-1.0251,-1.0253,-1.0257,-1.028,-1.0285,-1.0296,-1.0278,-1.034,-1.0341,-1.0343,-1.0351,-1.0353,-1.0356,0,0,0,0,0,-1.0174,-1.0192,-1.0191,-1.0195,-1.022,-1.0239,-1.0242,-1.0245,-1.0239,-1.0248,-1.0255,-1.0253,-1.0292,-1.0283,-1.0287,-1.03,-1.0339,-1.0341,-1.0343,-1.035,-1.0353,-1.0356,0,0,0,0,0,0,-1.0181,-1.0194,-1.0193,-1.0215,-1.0226,-1.0238,-1.025,-1.0248,-1.0262,-1.0261,-1.0265,-1.0268,-1.029,-1.0297,-1.0286,-1.0324,-1.0315,-1.0318,-1.0319,-1.0322,-1.0324,-1.0322,-1.028,0,0,0,0,0,-1.0185,-1.0199,-1.021,-1.0228,-1.0234,-1.0241,-1.0249,-1.0251,-1.0262,-1.0267,-1.0276,-1.0288,-1.0303,-1.0313,-1.0327,-1.0352,-1.0355,-1.0363,-1.0365,-1.0367,-1.037,-1.0384,-1.0387,-1.0349,-1.0349,-1.0349,0,0,-1.0194,-1.0203,-1.0211,-1.023,-1.0238,-1.0253,-1.0245,-1.026,-1.0272,-1.027,-1.0291,-1.0297,-1.0311,-1.0334,-1.0345,-1.0341,-1.0381,-1.0369,-1.0371,-1.0372,-1.0386,-1.0389,-1.0392,-1.035,-1.035,-1.035,0,0,-1.0217,-1.0225,-1.0241,-1.025,-1.0263,-1.0267,-1.0271,-1.0284,-1.0288,-1.0309,-1.0308,-1.0322,-1.0347,-1.0357,-1.0366,-1.0393,-1.0392,-1.0397,-1.041,-1.0424,-1.0427,-1.0429,-1.0439,-1.0443,-1.04,-1.04,-1.04,0,-1.0227,-1.0248,-1.025,-1.0266,-1.0275,-1.0273,-1.029,-1.0299,-1.0316,-1.0322,-1.0317,-1.035,-1.0359,-1.0384,-1.0391,-1.0398,-1.0403,-1.0396,-1.0426,-1.0429,-1.0431,-1.0441,-1.0444,-1.04,-1.04,-1.04,-1.04,0,-1.0259,-1.0274,-1.0286,-1.0302,-1.0312,-1.0328,-1.0334,-1.0344,-1.0345,-1.035,-1.0372,-1.0383,-1.0399,-1.0406,-1.0407,-1.0432,-1.0429,-1.0425,-1.0416,-1.0435,-1.0444,-1.0448,-1.0401,-1.0401,-1.0401,-1.0401,0,0,-1.0287,-1.0304,-1.0309,-1.0316,-1.033,-1.0342,-1.0358,-1.0374,-1.0383,-1.0395,-1.0409,-1.0431,-1.0428,-1.0437,-1.044,-1.0452,-1.0473,-1.0446,-1.0446,-1.0451,-1.0502,-1.0505,-1.0509,-1.0472,-1.0473,-1.0473,-1.05,0,-1.0312,-1.0341,-1.0344,-1.037,-1.0384,-1.0383,-1.0397,-1.0408,-1.0413,-1.0427,-1.0433,-1.0449,-1.0443,-1.0448,-1.046,-1.0468,-1.0483,-1.0466,-1.0486,-1.0487,-1.0483,-1.0514,-1.0517,-1.0542,-1.0504,-1.0505,-1.0505,0,-1.0345,-1.0357,-1.0384,-1.0396,-1.0403,-1.0416,-1.043,-1.0443,-1.0455,-1.0458,-1.0469,-1.047,-1.0488,-1.0478,-1.0504,-1.0492,-1.05,-1.0505,-1.0507,-1.0509,-1.0497,-1.0517,-1.055,-1.0554,-1.0511,-1.051,-1.051,0,-1.0364,-1.0387,-1.0406,-1.0412,-1.0427,-1.0436,-1.0443,-1.0454,-1.0463,-1.0477,-1.0483,-1.0498,-1.0507,-1.0519,-1.0524,-1.0517,-1.055,-1.054,-1.0554,-1.0554,-1.0561,-1.056,-1.0596,-1.0566,-1.0566,-1.0566,-1.0566,0,-1.0391,-1.0408,-1.0414,-1.0426,-1.0446,-1.0449,-1.0468,-1.0474,-1.0485,-1.0498,-1.0498,-1.0511,-1.0517,-1.0532,-1.0536,-1.0557,-1.0561,-1.0564,-1.0566,-1.0565,-1.0564,-1.0571,-1.0569,-1.0567,-1.0567,-1.0566,-1.0566,0,-1.0415,-1.042,-1.0441,-1.0453,-1.0456,-1.047,-1.048,-1.0492,-1.0497,-1.0515,-1.0519,-1.0528,-1.0545,-1.0551,-1.0572,-1.0575,-1.0599,-1.0598,-1.0595,-1.0595,-1.0608,-1.0607,-1.065,-1.0655,-1.0621,-1.0621,-1.0622,0,-1.0433,-1.0445,-1.0458,-1.0467,-1.0474,-1.0488,-1.0497,-1.0501,-1.0511,-1.0526,-1.0537,-1.0553,-1.0566,-1.0594,-1.0602,-1.0618,-1.0618,-1.0632,-1.0621,-1.062,-1.0619,-1.0618,-1.062,-1.0634,-1.0635,-1.0635,-1.0635,0,-1.0463,-1.0465,-1.0478,-1.0492,-1.0503,-1.0514,-1.0525,-1.0533,-1.0539,-1.055,-1.0566,-1.0577,-1.0598,-1.0614,-1.0631,-1.0639,-1.0638,-1.0639,-1.0643,-1.0642,-1.064,-1.0642,-1.0601,-1.0638,-1.0638,-1.0637,-1.0637,-1.0637,-1.0485,-1.0496,-1.0507,-1.0522,-1.053,-1.054,-1.0552,-1.0559,-1.0573,-1.0589,-1.0591,-1.0609,-1.0622,-1.0643,-1.0652,-1.0667,-1.0663,-1.0669,-1.067,-1.0672,-1.0673,-1.0637,-1.067,-1.067,-1.067,-1.067,-1.0669,0,-1.0516,-1.0523,-1.0536,-1.0551,-1.0563,-1.056,-1.0572,-1.0583,-1.0598,-1.0609,-1.0622,-1.0642,-1.0658,-1.0668,-1.0684,-1.0694,-1.0695,-1.0699,-1.0698,-1.07,-1.0675,-1.067,-1.0698,-1.0698,-1.0698,-1.0698,-1.0698,-1.0698,-1.0533,-1.0553,-1.0556,-1.0579,-1.0586,-1.0603,-1.0611,-1.062,-1.0629,-1.0651,-1.0664,-1.067,-1.0681,-1.0698,-1.0713,-1.0715,-1.0722,-1.0726,-1.0728,-1.0705,-1.0702,-1.0699,-1.0694,-1.0727,-1.0727,-1.0752,-1.0753,-1.0753]},{"header":{"parameterUnit":"m.s-1","parameterCategory":1,"la1":30.2991,"la2":30.254,"lo1":-89.0895,"lo2":-89.0444,"dy":0.0017,"dx":0.0017,"nx":28,"ny":28,"refTime":"2025-04-23T21:00:00:Z","depth":0,"parameterNumber":3,"parameterNumberName":"V-component_of_WINDS"},"data":[0,0,0,0,0,0,0,0,0,0,0,0,0,0,0,0,0,0,0,0,0,0,0,0,0,0,0,0,0,0,0,0,0,0,0,0,0,0,0,0,0,0,0,0,0,0,0,0,0,0,0,0,0,0,0,0,0,0,2.5124,2.5124,0,2.5132,2.5132,2.5133,2.5093,2.5092,2.5091,2.509,2.5097,2.5098,2.51,0,0,0,0,0,0,0,0,0,0,0,0,0,2.5073,2.5075,2.5124,2.5124,2.5124,2.5132,2.5132,2.5133,2.5093,2.5092,2.5091,2.5089,2.5097,2.5098,2.51,0,0,0,0,0,0,0,0,0,0,0,0,0,2.509,2.5075,2.5124,2.5106,2.5104,2.5132,2.5132,2.5133,2.5094,2.5092,2.509,2.5089,2.5096,2.5098,2.51,2.5146,0,0,2.5106,2.5106,0,0,0,0,0,0,0,0,2.5089,2.5092,2.5108,2.5107,2.5106,2.511,2.5117,2.5137,2.5094,2.5098,2.509,2.5088,2.5103,2.5104,2.5109,2.5146,2.5146,2.5106,2.5107,2.5108,2.5108,0,0,0,0,0,0,0,2.5088,2.5091,2.5127,2.5109,2.5107,2.5097,2.5097,2.5121,2.511,2.5097,2.5094,2.5096,2.5102,2.5107,2.5109,2.5146,2.5106,2.5107,2.5109,2.5109,2.5221,2.5222,0,0,0,0,0,0,2.5089,2.5091,2.5127,2.5128,2.5093,2.5099,2.51,2.511,2.5109,2.5107,2.5097,2.5094,2.5105,2.5107,2.5109,2.5162,2.5108,2.5109,2.5111,2.5219,2.5221,2.5223,0,0,0,0,0,0,2.5088,2.5093,2.5127,2.5108,2.5112,2.5102,2.5114,2.5111,2.5117,2.5109,2.5107,2.5106,2.5104,2.5107,2.5137,2.5162,2.511,2.5112,2.5217,2.522,2.5222,2.527,0,0,0,0,0,0,2.5087,2.5093,2.5111,2.5109,2.5113,2.5155,2.5116,2.5113,2.5121,2.5116,2.5116,2.5115,2.5103,2.5134,2.5139,2.5164,2.5114,2.5214,2.5218,2.5221,2.5266,2.5274,2.528,0,0,0,0,0,2.5086,2.5124,2.5112,2.5116,2.5135,2.5156,2.5159,2.5144,2.5123,2.514,2.5135,2.5115,2.5159,2.5138,2.5142,2.5168,2.5213,2.5217,2.5221,2.5262,2.5272,2.528,0,0,0,0,0,0,2.5128,2.5123,2.511,2.5149,2.5153,2.515,2.5171,2.5155,2.5166,2.5161,2.5142,2.5143,2.5176,2.5175,2.5152,2.5212,2.5182,2.5187,2.5212,2.5221,2.5228,2.5228,2.5115,0,0,0,0,0,2.5142,2.516,2.5155,2.5189,2.5192,2.5182,2.519,2.5179,2.5183,2.5185,2.5182,2.5186,2.5201,2.5211,2.5224,2.5265,2.5265,2.5285,2.5293,2.5299,2.5304,2.5325,2.5334,2.5237,2.5237,2.5236,0,0,2.5171,2.517,2.5183,2.5198,2.52,2.5219,2.5184,2.5205,2.5219,2.5188,2.5216,2.5214,2.5218,2.5254,2.527,2.5254,2.533,2.5304,2.5309,2.531,2.533,2.534,2.5348,2.5239,2.5239,2.5238,0,0,2.5233,2.5235,2.5264,2.5267,2.5271,2.5263,2.527,2.5269,2.5267,2.5295,2.5272,2.5288,2.5314,2.5317,2.5322,2.5386,2.5367,2.539,2.5429,2.545,2.5458,2.5464,2.5487,2.5495,2.5395,2.5395,2.5395,0,2.5268,2.5296,2.5281,2.5304,2.5311,2.5284,2.5313,2.5316,2.5324,2.5329,2.5312,2.5344,2.5344,2.5381,2.5396,2.5401,2.5408,2.539,2.5458,2.5464,2.547,2.5492,2.55,2.5398,2.5398,2.5397,2.5397,0,2.5339,2.5359,2.5382,2.5391,2.54,2.5426,2.5414,2.5425,2.5413,2.5407,2.5436,2.5436,2.5448,2.5456,2.5444,2.5491,2.5481,2.5461,2.543,2.5483,2.5502,2.551,2.5402,2.5401,2.54,2.5399,0,0,2.5429,2.5428,2.5437,2.544,2.5443,2.5457,2.5482,2.5494,2.5504,2.5511,2.5531,2.5553,2.5535,2.554,2.5528,2.5547,2.5597,2.5525,2.5525,2.5538,2.5648,2.5663,2.5673,2.5585,2.5586,2.5588,2.5648,0,2.549,2.5532,2.5518,2.5561,2.5579,2.5553,2.5574,2.5578,2.5573,2.5587,2.5581,2.5597,2.5572,2.5575,2.5593,2.5587,2.5619,2.5583,2.5603,2.5604,2.5603,2.5683,2.5699,2.5756,2.5655,2.5657,2.5657,0,2.5567,2.5576,2.5621,2.562,2.5626,2.5646,2.5656,2.567,2.5673,2.5668,2.5675,2.5659,2.5682,2.5651,2.5683,2.5659,2.5666,2.5665,2.5667,2.5668,2.5634,2.5686,2.5773,2.5782,2.5669,2.5668,2.5668,0,2.5627,2.5651,2.5681,2.5685,2.5684,2.5698,2.5699,2.57,2.5708,2.5717,2.5722,2.5733,2.574,2.5749,2.5736,2.5715,2.577,2.5738,2.5766,2.5766,2.5779,2.5778,2.5868,2.5784,2.5784,2.5783,2.5783,0,2.5697,2.5725,2.5708,2.5726,2.5757,2.574,2.5771,2.5768,2.577,2.5787,2.5765,2.5782,2.5764,2.5779,2.5769,2.5797,2.5799,2.5796,2.5793,2.5798,2.5798,2.5802,2.5798,2.5786,2.5785,2.5785,2.5784,0,2.577,2.576,2.579,2.5787,2.5787,2.581,2.5807,2.5823,2.5817,2.5839,2.5843,2.5833,2.5848,2.5837,2.5853,2.5846,2.5883,2.5874,2.5882,2.5879,2.5908,2.5906,2.6004,2.6016,2.5924,2.5925,2.5926,0,2.5815,2.5836,2.5835,2.5845,2.5847,2.5863,2.5871,2.5856,2.5865,2.587,2.5886,2.59,2.5911,2.5937,2.5931,2.5943,2.5935,2.5968,2.5936,2.5941,2.5935,2.5934,2.5936,2.5975,2.5976,2.5977,2.5978,0,2.5896,2.5889,2.5902,2.5914,2.5924,2.5932,2.5938,2.5948,2.5932,2.5944,2.596,2.5968,2.5984,2.5998,2.6008,2.6008,2.599,2.5988,2.5995,2.6,2.6004,2.6002,2.5899,2.5986,2.5985,2.5984,2.5984,2.5983,2.5956,2.5973,2.5975,2.599,2.5993,2.6,2.6015,2.601,2.6024,2.6036,2.6026,2.6045,2.6047,2.6058,2.606,2.6075,2.6061,2.6071,2.6074,2.6077,2.6081,2.6001,2.6077,2.6076,2.6076,2.6076,2.6076,0,2.6036,2.6036,2.605,2.6059,2.6071,2.6053,2.6059,2.607,2.6087,2.6091,2.6102,2.612,2.6134,2.6128,2.614,2.6153,2.6145,2.6157,2.6156,2.6156,2.6093,2.6085,2.6163,2.6163,2.6163,2.6163,2.6163,2.6163,2.6079,2.6107,2.6101,2.6131,2.613,2.6149,2.6154,2.6159,2.6162,2.6184,2.6195,2.6191,2.6191,2.6203,2.6215,2.6213,2.6218,2.6233,2.6228,2.6169,2.616,2.6152,2.6145,2.6234,2.6234,2.629,2.629,2.6291]}]]